CDT,Max TemperatureF,Mean TemperatureF,Min TemperatureF,Max Dew PointF,MeanDew PointF,Min DewpointF,Max Humidity, Mean Humidity, Min Humidity, Max Sea Level PressureIn, Mean Sea Level PressureIn, Min Sea Level PressureIn, Max VisibilityMiles, Mean VisibilityMiles, Min VisibilityMiles, Max Wind SpeedMPH, Mean Wind SpeedMPH, Max Gust SpeedMPH,PrecipitationIn, CloudCover, Events, WindDirDegrees
2013-5-1,59,49,39,47,40,34,79,68,57,30.31,30.16,29.89,10,10,10,36,22,45,0.00,6,,3
2013-5-2,40,36,32,36,33,30,100,90,79,30.43,30.36,30.27,10,3,0,32,23,41,0.79,8,Fog-Rain-Snow-Thunderstorm,357
2013-5-3,34,33,31,34,31,30,100,95,89,30.33,30.13,29.96,10,5,0,25,18,32,0.38,8,Fog-Rain-Snow,360
2013-5-4,58,46,34,55,43,32,100,96,92,30.08,29.99,29.89,10,5,1,22,13,26,2.25,8,Rain,5
2013-5-5,67,55,43,57,47,41,100,84,68,30.11,30.06,30.03,10,10,7,15,9,18,T,4,Rain,341
2013-5-6,73,60,46,53,49,45,100,71,41,30.09,30.04,30.00,10,8,3,10,5,13,0.00,1,,324
2013-5-7,77,62,46,55,48,45,100,67,33,30.07,30.01,29.97,10,9,4,8,3,12,0.00,1,,241
2013-5-8,75,62,48,59,53,47,97,72,46,30.00,29.97,29.92,10,10,6,21,6,24,0.10,4,Rain,145
2013-5-9,70,61,52,61,58,53,100,87,73,29.93,29.88,29.81,10,7,2,25,11,30,0.40,7,Rain,355
2013-5-10,66,57,47,52,49,45,100,78,56,30.03,29.98,29.90,10,10,7,24,11,29,T,6,,353
2013-5-11,55,46,37,46,33,20,93,60,26,30.19,30.09,29.93,10,10,10,36,20,44,0.00,1,,307
2013-5-12,59,45,31,31,27,24,85,57,28,30.25,30.19,30.12,10,10,10,20,8,25,0.00,0,,308
2013-5-13,74,54,34,48,39,29,85,59,33,30.14,30.03,29.82,10,10,10,24,10,31,0.00,1,,183
2013-5-14,95,74,52,60,55,49,96,60,24,29.80,29.68,29.56,10,10,10,31,14,38,0.00,0,,219
2013-5-15,81,69,56,48,45,41,67,48,28,29.91,29.83,29.72,10,10,10,8,10,8,0.00,0,,14
2013-5-16,82,68,54,61,54,47,81,59,36,29.91,29.86,29.81,10,10,10,18,7,22,0.00,2,,133
2013-5-17,80,70,59,64,61,58,100,76,52,29.94,29.89,29.83,10,10,10,17,8,22,0.00,2,,159
2013-5-18,83,70,57,65,61,56,93,70,47,29.96,29.89,29.79,10,9,3,22,11,26,0.00,2,,130
2013-5-19,86,74,61,69,65,61,100,78,55,29.80,29.67,29.55,10,7,0,47,16,60,1.70,5,Fog-Rain-Thunderstorm,147
2013-5-20,77,68,59,63,59,55,100,78,56,29.65,29.60,29.54,10,8,1,23,16,33,1.11,4,Rain-Thunderstorm,208
2013-5-21,69,62,55,59,55,51,97,80,63,29.68,29.62,29.54,10,10,9,21,12,26,0.00,6,,229
2013-5-22,62,58,53,57,54,50,100,90,80,29.85,29.71,29.63,10,10,4,22,12,28,0.02,8,Rain,262
2013-5-23,68,58,48,54,49,43,93,68,42,30.28,30.10,29.86,10,10,3,23,13,29,0.02,4,Rain,13
2013-5-24,68,55,41,51,45,39,96,69,42,30.38,30.30,30.21,10,10,10,22,11,26,T,2,Rain,123
2013-5-25,59,55,50,54,50,46,100,84,67,30.26,30.21,30.16,10,7,2,26,16,33,1.19,8,Rain-Thunderstorm,130
2013-5-26,60,55,49,56,51,48,100,92,84,30.22,30.10,29.94,10,5,0,31,15,37,4.89,8,Fog-Rain-Thunderstorm,106
2013-5-27,71,64,56,66,61,55,100,89,78,30.01,29.82,29.70,10,6,0,38,10,47,0.23,7,Fog-Rain-Thunderstorm,111
2013-5-28,78,70,62,68,64,61,100,85,69,29.76,29.69,29.62,10,8,1,20,8,25,0.60,5,Rain-Thunderstorm,179
2013-5-29,79,71,62,71,66,61,93,86,78,29.80,29.74,29.68,10,8,1,29,13,41,2.07,6,Rain-Thunderstorm,142
2013-5-30,75,69,62,67,63,61,93,83,73,29.69,29.64,29.55,10,10,10,26,16,33,T,4,Rain,172
2013-5-31,75,69,62,65,63,61,100,84,68,29.68,29.66,29.61,10,10,10,25,16,35,0.00,3,,183